Probability
0 0 0 0 0 0 0 0 0 0 0 0 0 0 0 0 0 0 0 0 0 0 0 0 0 0 0 0 0 0 0 0 0 0 0 0 0 0 0 0 0 0 0
0 0 0 0 0 0 0 0 0 0 0 0 0 0 0 0 0 0 0 0 0 0 0 0 0 0 0 0 0 0 0 0 0 0 0 0 0 0 0 0 0 0 0
0 0 0 0 0 0 0 0 0 0 0 0 0 0 0 0 0 0 0 0 0 0 0 0 0 0 0 0 0 0 0 0 0 0 0 0 0 0 0 0 0 0 0
0 0 0 0 0 0 0 0 0 0 0 0 0 0 0 0 0 0 0 0 0 0 0 0 0 0 0 0 0 0 0 0 0 0 0 0 0 0 0 0 0 0 0
1 0 0 0 0 0 0 0 0 0 0 0 0 0 0 0 0 0 0 0 0 0 0 0 0 0 0 0 0 0 0 0 0 0 0 0 0 0 0 0 0 0 0
2 1 0 0 0 0 0 0 0 0 0 0 0 0 0 0 0 0 0 0 0 0 0 0 0 0 0 0 0 0 0 0 0 0 0 0 0 0 0 0 0 0 0
2 1 0 0 0 0 0 0 0 0 0 0 0 0 0 0 0 0 0 0 0 0 0 0 0 0 0 0 0 0 0 0 0 0 0 0 0 0 0 0 0 0 0
1 0 0 1 0 0 0 0 0 0 0 0 0 0 0 0 0 0 0 0 0 0 0 0 0 0 0 0 0 0 0 0 0 0 0 0 0 0 0 0 0 0 0
0 0 0 0 0 0 0 0 0 0 0 0 0 1 1 0 0 0 0 0 0 0 0 0 0 0 0 0 0 0 0 0 0 0 0 0 0 0 0 0 0 0 0
2 1 1 0 0 0 0 0 0 0 0 0 0 1 1 0 0 0 0 0 0 0 0 0 0 0 0 0 0 0 0 0 0 0 0 0 0 0 0 0 0 0 0
8 6 4 2 0 0 0 0 0 0 0 0 0 1 1 0 0 0 0 0 0 0 0 0 0 0 0 0 0 0 0 0 0 0 0 0 0 0 0 0 0 0 0
16 12 8 5 2 2 3 3 1 0 0 0 0 0 0 0 0 0 0 0 0 0 0 0 0 0 0 0 0 0 0 0 0 0 0 0 0 0 0 0 0 0 0
20 15 11 9 8 7 8 7 3 1 0 0 0 0 0 0 0 0 0 0 0 0 0 0 0 0 0 0 0 0 0 0 0 0 1 1 1 0 0 0 0 0 0
24 20 15 13 14 14 13 8 3 1 0 0 0 0 0 0 0 0 0 0 0 0 0 0 0 0 0 0 0 0 0 0 0 1 3 3 3 1 0 0 0 0 0
28 26 21 17 17 19 14 7 2 0 0 0 0 0 0 0 0 0 0 0 0 0 0 0 0 0 0 0 0 0 0 0 0 1 2 3 3 1 0 0 0 0 0
28 27 23 17 16 17 13 5 1 0 0 0 0 0 0 0 0 0 0 0 0 0 0 0 0 0 0 0 0 0 0 0 0 0 1 1 1 0 0 0 0 0 0
23 22 18 14 14 15 11 5 1 0 0 0 0 0 0 0 0 0 0 0 0 0 0 0 0 0 0 0 0 0 0 0 0 0 0 0 0 0 0 1 0 0 1
20 18 14 12 13 14 11 6 2 0 0 0 0 0 0 0 0 0 0 0 0 0 0 0 0 0 0 0 0 0 0 0 0 0 0 0 0 0 0 0 0 0 1
19 17 15 13 12 12 10 6 2 0 0 0 0 0 0 0 0 0 0 0 0 0 0 0 0 0 0 0 0 0 0 0 0 0 0 0 0 0 0 0 0 0 1
18 18 16 14 12 11 8 5 1 0 0 0 0 0 0 0 0 0 0 0 0 0 0 0 0 0 0 0 0 0 0 0 0 0 0 0 0 0 0 0 0 0 0
18 18 17 14 11 9 5 2 0 0 0 0 0 0 0 0 0 0 0 0 0 0 0 0 0 0 0 0 0 0 0 0 0 0 0 0 0 0 0 0 0 0 0
15 16 14 12 9 6 2 0 0 0 0 0 0 0 0 0 0 0 0 0 0 0 0 0 0 0 0 0 0 0 0 0 0 0 0 0 0 0 0 0 0 0 0
9 10 10 10 8 4 1 0 0 0 0 0 0 0 0 0 0 0 0 0 0 0 0 0 0 0 0 0 0 0 0 0 0 0 0 0 0 0 0 0 0 0 0
5 5 6 8 7 4 1 0 0 0 0 0 0 0 0 0 0 0 0 0 0 0 0 0 0 0 0 0 0 0 0 0 0 0 0 0 0 0 0 0 0 0 0
4 4 4 5 6 4 2 1 0 0 0 0 0 0 0 0 0 0 0 0 0 0 0 0 0 0 0 0 0 0 0 0 0 0 0 0 0 0 0 0 0 0 0
5 4 3 4 5 4 2 1 0 0 0 0 0 0 0 0 0 0 0 0 0 0 0 0 0 0 0 0 0 0 0 0 0 0 0 0 0 0 0 0 0 0 0
Wind_Speed
14 16 16 13 13 13 13 14 14 14 14 14 13 12 12 11 10 9 9 8 8 8 9 8 8 8 8 7 7 6 6 5 5 5 7 9 10 11 13 13 13 12 14
17 18 17 13 13 13 13 14 14 14 14 14 13 12 11 11 10 9 9 8 8 8 8 8 8 8 8 7 7 6 6 5 5 6 8 10 10 11 12 10 8 11 14
19 19 18 13 14 13 13 13 13 14 13 13 12 12 11 10 9 9 8 8 8 8 8 7 8 8 7 7 7 6 6 6 6 5 6 8 11 10 10 10 13 14 13
19 19 17 16 14 14 13 13 13 13 13 12 12 11 10 9 9 8 8 7 8 8 7 7 7 7 7 7 7 6 6 6 4 5 5 8 10 11 11 12 13 13 12
18 17 17 17 15 14 13 13 13 13 12 12 11 10 10 9 8 8 7 7 7 6 6 6 6 6 7 7 6 6 6 5 2 6 6 7 8 10 11 12 12 12 12
18 17 18 15 15 14 13 13 13 12 12 11 10 9 9 8 7 7 6 6 6 5 5 5 5 5 5 5 6 5 5 2 9 4 6 6 9 10 10 11 12 12 12
17 16 19 15 14 13 13 12 12 11 11 10 9 8 7 6 5 5 4 4 5 5 4 4 4 4 4 4 5 5 3 3 3 5 5 6 9 10 10 11 11 11 11
16 15 17 14 13 13 12 12 11 11 10 9 8 7 6 5 4 3 3 3 3 3 3 4 4 4 3 3 3 3 2 7 3 4 4 7 10 8 10 10 10 11 11
14 14 15 15 14 12 11 11 10 10 9 8 7 6 5 4 3 2 2 2 3 3 3 4 4 4 3 3 2 2 1 5 5 3 4 7 9 7 9 10 10 10 10
12 12 13 13 12 12 12 11 10 9 8 7 6 5 3 3 4 3 5 4 4 4 4 4 5 5 4 3 3 2 2 6 4 4 3 9 9 8 9 9 10 10 10
11 10 11 11 10 10 10 12 10 9 7 7 7 5 4 4 4 5 2 1 4 5 5 4 4 5 5 6 5 4 6 6 3 1 3 11 8 8 9 9 9 10 10
13 11 9 9 10 9 7 8 6 6 6 3 3 2 2 0 1 3 4 2 4 5 6 6 5 6 8 6 8 8 6 5 3 3 6 9 8 8 9 9 9 10 10
13 11 10 9 9 8 6 6 4 3 4 4 3 1 1 2 1 2 2 4 4 6 6 6 7 6 5 3 3 5 4 5 3 3 7 9 7 8 9 10 10 10 10
12 11 10 9 8 6 5 5 4 4 3 3 3 0 1 1 2 2 2 2 2 2 2 3 3 4 5 5 5 4 4 5 4 3 6 8 7 8 9 10 11 11 11
11 10 9 9 8 7 5 4 4 3 3 4 3 3 2 1 2 1 1 2 3 1 2 3 3 3 4 5 5 5 5 5 5 5 4 8 6 7 8 10 11 12 11
11 10 9 9 8 8 6 5 4 4 3 4 3 5 3 3 2 2 0 1 2 2 2 2 2 2 3 2 3 3 4 4 4 4 4 7 8 6 7 8 10 11 11
10 10 9 8 8 8 7 7 5 4 4 4 4 4 3 3 3 2 1 1 2 1 0 1 1 2 2 3 3 3 3 3 3 4 5 4 6 9 8 8 9 10 11
9 9 9 8 9 8 7 6 5 5 5 4 4 4 4 4 3 2 2 2 2 1 1 0 2 1 1 2 2 2 2 3 3 4 4 5 4 5 9 10 9 9 11
9 9 9 8 9 8 8 7 6 5 4 4 3 3 3 3 3 2 3 3 1 1 1 2 1 2 1 2 2 2 2 2 2 4 4 5 5 5 5 9 10 10 11
9 9 9 9 9 9 8 6 5 5 5 4 3 3 3 2 2 2 2 3 2 2 1 2 1 2 3 3 4 1 2 2 3 2 4 4 4 6 7 6 7 10 13
8 9 10 10 10 8 7 7 6 6 5 4 4 4 3 2 3 2 2 2 2 3 3 2 2 1 1 2 4 4 3 3 1 2 2 3 2 3 4 5 6 5 7
10 10 10 10 10 9 7 5 4 4 4 4 4 4 3 3 2 2 2 1 2 2 2 2 2 2 1 1 4 3 4 5 3 1 1 1 1 1 2 3 3 4 6
11 11 10 10 10 9 9 6 5 5 4 5 5 5 5 4 3 1 1 2 1 1 3 2 2 2 1 1 2 4 4 1 3 4 1 1 0 1 0 0 2 2 4
12 11 10 10 10 10 9 9 9 6 5 5 4 4 6 6 5 4 3 2 0 1 2 0 3 2 3 0 2 1 3 5 4 2 5 3 2 0 2 2 1 1 2
12 11 10 10 10 10 10 9 8 7 5 4 4 5 6 6 6 5 4 3 2 1 1 2 1 2 1 2 1 0 0 1 4 4 1 1 3 2 0 1 1 1 1
12 11 11 11 11 11 11 10 10 8 6 5 5 5 6 5 6 7 6 5 5 2 2 2 1 1 1 2 3 1 2 2 2 3 4 4 3 2 2 2 2 1 1
Wind_Direction
156 145 141 148 142 137 132 128 126 125 126 127 127 126 125 124 122 118 114 109 103 98 93 90 89 88 86 83 78 75 74 75 94 111 119 123 128 130 132 134 140 122 124
149 143 145 150 146 142 135 130 128 127 128 127 126 126 125 124 121 117 112 107 100 95 91 89 88 87 83 80 75 72 75 77 92 114 127 130 129 130 133 135 125 118 130
148 144 151 152 149 145 139 135 132 131 131 130 129 128 127 124 121 117 111 105 99 95 90 87 87 85 81 76 71 68 74 83 93 123 160 139 126 129 130 122 117 128 129
150 149 154 150 152 148 144 140 137 135 133 132 131 130 128 125 122 118 112 106 101 97 93 90 87 84 79 74 68 65 73 88 107 199 163 122 129 128 132 128 129 129 127
150 149 143 153 153 151 148 144 141 139 138 136 135 133 132 131 128 125 120 113 106 102 99 94 89 86 77 71 67 64 76 98 177 233 100 108 112 129 134 133 132 129 130
150 154 144 157 153 152 149 147 144 142 141 139 137 135 134 133 131 128 128 123 118 113 108 102 98 92 83 71 65 64 80 137 233 120 106 120 118 135 140 138 137 135 134
156 155 146 156 153 151 150 148 145 144 141 138 137 137 137 136 135 133 131 132 128 127 126 121 117 106 93 77 63 63 80 277 275 102 120 117 110 135 145 140 141 140 139
157 154 142 149 151 151 149 148 146 143 140 139 140 142 144 144 142 142 151 156 153 149 149 149 147 140 125 100 74 61 54 279 169 115 123 110 112 143 145 143 143 144 143
158 154 149 158 156 152 147 147 144 141 139 138 139 140 144 149 157 168 192 206 205 191 182 180 178 175 166 148 123 89 57 304 279 118 132 109 125 149 153 152 150 149 148
159 156 154 164 157 162 155 144 139 136 136 134 133 135 145 174 189 194 221 208 231 227 214 205 204 199 192 185 174 160 190 253 243 153 130 113 138 162 163 163 160 157 155
158 160 165 156 156 164 158 144 148 142 137 154 152 143 205 219 202 196 190 165 236 234 228 221 216 216 206 195 192 188 222 244 189 151 99 113 154 176 176 174 171 167 166
162 163 159 154 159 166 149 143 155 157 147 168 122 153 211 317 290 282 122 228 248 235 224 221 221 223 228 205 180 198 224 233 234 187 125 134 171 191 189 185 183 181 178
161 159 161 158 164 158 145 150 145 134 134 139 107 84 18 284 257 257 238 199 216 219 222 197 213 227 228 230 225 218 234 238 227 213 135 149 183 201 198 192 192 193 191
159 163 162 155 155 153 146 138 145 142 142 119 107 30 39 350 319 332 292 296 257 234 230 235 226 223 237 232 231 234 227 244 235 220 130 152 187 204 204 197 198 201 199
161 162 158 154 148 144 139 147 136 130 125 109 94 71 18 16 9 353 346 328 294 288 222 224 232 216 223 222 228 217 228 244 257 249 154 155 186 203 209 206 204 203 204
167 162 156 157 153 150 147 137 132 128 119 109 95 75 39 42 35 354 354 336 324 315 336 287 246 221 226 224 232 228 235 230 226 239 236 170 184 201 211 211 208 206 207
165 162 158 158 156 156 148 145 140 135 126 109 96 88 64 55 45 357 28 324 6 351 296 255 238 229 220 211 215 221 229 237 218 220 238 230 192 190 202 209 208 208 209
163 161 162 163 158 154 145 147 139 134 124 115 109 99 74 58 37 352 23 41 359 312 290 215 267 244 233 246 219 238 212 207 216 223 228 227 237 214 190 194 204 209 212
163 162 164 161 159 154 149 147 136 134 129 127 120 101 91 73 47 21 39 38 312 348 338 319 31 305 271 285 243 214 240 229 221 225 241 238 232 247 234 175 195 208 212
159 163 163 162 161 158 153 149 146 146 151 147 131 109 115 98 61 17 85 43 353 40 31 29 14 348 307 292 281 262 257 257 249 241 251 235 229 234 236 224 206 204 208
159 166 169 169 164 165 161 165 163 163 166 162 154 139 145 111 98 11 53 76 360 49 15 2 328 174 285 316 264 229 207 221 250 238 265 284 246 245 244 228 236 235 202
169 169 173 174 171 175 165 165 166 160 176 166 163 156 172 156 156 136 43 65 60 77 61 29 354 327 31 336 295 261 213 176 197 186 202 209 327 264 232 219 235 230 251
176 176 177 176 174 178 167 168 160 166 186 175 185 182 186 185 179 126 127 39 47 349 77 30 355 346 355 70 350 309 291 251 151 157 151 121 78 338 262 250 242 243 242
180 177 176 178 179 178 179 187 187 194 193 186 196 178 181 195 196 183 178 157 254 49 91 183 56 347 309 325 116 3 349 355 302 176 185 165 138 1 14 319 320 178 257
179 177 180 182 183 184 193 194 202 209 205 188 191 175 201 192 202 199 193 187 194 195 83 36 64 341 331 335 350 334 172 222 271 289 243 211 212 203 269 275 334 345 336
181 183 183 182 187 188 195 201 210 215 216 208 206 195 206 195 199 197 200 200 208 198 167 183 186 170 358 2 324 315 287 281 278 283 277 256 260 236 271 285 263 283 318